Location: Martley
(52.2333°N, 2.3667°W)
Time: 02:48:16
(UTC+00:00)

COSMO-SKYMED 1 - Pass Details

Date: 11 December 2019
Orbit: 621 x 623 km, 97.9° (Epoch: 25 January)

Event Time Altitude Azimuth Distance (km) Brightness Sun altitude
Rises 04:24:46 0° 141° (SE) 2,898 6.4 -32.8°
Reaches altitude 10° 04:27:03 10° 133° (SE) 1,996 5.6 -32.4°
Enters shadow 04:29:44 30° 104° (ESE) 1,135 4.3 -32.0°
